Location: Platte
(43.3870°N, 98.8440°W)
Time: 18:25:57
(UTC-05:00)

Daily predictions for brighter satellites

Satellite Brightness Start Highest point End
(mag) Time Altitude Azimuth Time Altitude Azimuth Time Altitude Azimuth
DELTA 2 R/B (1) 4.2 20:32:18 10° W 20:37:39 48° SSW 20:42:59 10° ESE
Cosmos 1605 Rocket 4.2 20:32:03 10° SSE 20:38:09 53° E 20:44:12 10° NNE
Meteor 2-14 Rocket 4.5 20:34:12 10° S 20:40:21 83° E 20:46:31 10° N
Cosmos 1626 Rocket 4.0 20:36:42 10° N 20:40:52 40° ENE 20:44:58 10° SSE
FENGYUN 3A 3.8 20:35:43 10° SSE 20:40:53 54° ENE 20:46:06 10° N
Meteor 2-15 Rocket 4.4 20:34:49 10° N 20:40:55 75° E 20:46:58 10° SSE
Cosmos 1656 4.0 20:36:04 10° S 20:41:19 42° ESE 20:46:32 10° NE
Meteor 1-29 3.0 20:38:36 10° NNE 20:42:05 88° W 20:45:34 10° SSW
Cosmos 1892 Rocket 4.1 20:38:34 10° NNW 20:43:02 67° W 20:47:29 10° S
EO 1 Delta rocket 4.4 20:39:25 10° NNE 20:44:00 45° E 20:49:19 10° S
Cosmos 1455 Rocket 3.0 20:42:14 10° S 20:46:33 83° E 20:50:57 10° N
Tiangong 1 1.1 20:43:56 10° W 20:47:03 71° S 20:50:08 10° ESE
Cosmos 1975 3.3 20:43:20 10° SSE 20:47:11 39° E 20:51:01 10° NNE
Cosmos 220 Rocket 3.9 20:44:06 10° NNW 20:48:19 66° ENE 20:52:29 10° SSE
Lacrosse 5 rocket 2.0 20:45:58 10° WNW 20:49:33 44° SW 20:53:00 10° SSE
Cosmos 1602 Rocket 3.8 20:46:47 10° N 20:51:10 52° ENE 20:55:28 10° SSE
CZ-2D R/B 3.3 20:51:13 10° SSE 20:55:02 62° ENE 20:58:55 10° N
Cosmos 2227 Rocket 2.7 20:49:43 10° NNW 20:55:20 65° WSW 21:00:55 10° S
Cosmos 1500 4.0 20:52:39 10° SSE 20:55:56 30° E 20:59:17 10° NNE
Cosmos 1340 4.3 20:59:13 10° NNE 21:01:55 18° ENE 21:03:55 13° ESE
Resurs 1-3 4.5 21:00:07 10° S 21:04:24 53° W 21:08:43 10° NNW
CZ-4B DEB 3.4 21:02:30 10° S 21:05:44 60° W 21:09:00 10° NNW
Helios 1B rocket 4.0 21:02:57 10° N 21:06:50 41° WNW 21:10:41 10° SW
Cosmos 2123 Rocket 4.3 21:01:18 10° NNW 21:07:28 74° W 21:13:36 10° S
Cosmos 2297 Rocket 2.5 21:04:36 10° NNW 21:10:14 69° WSW 21:15:51 10° SSE
Cosmos 1459 Rocket 4.3 21:09:32 10° SSE 21:15:08 41° E 21:20:48 10° NNE
SL-24 R/B - RUBIN 2 4.5 21:11:33 10° SSW 21:17:28 88° NW 21:24:04 10° NE
Cosmos 1515 3.6 21:15:14 10° N 21:19:06 79° E 21:22:55 10° S
Meteor 1-12 Rocket 4.4 21:13:42 10° S 21:19:27 86° W 21:25:22 10° N
Iridium 4 Rocket 3.2 21:15:02 10° N 21:20:02 74° E 21:24:34 10° S
Cosmos 1606 Rocket 4.4 21:22:37 15° SE 21:25:26 29° E 21:29:17 10° NNE
Cosmos 1939 Rocket 3.5 21:24:09 19° SE 21:26:44 39° ENE 21:30:38 10° N
Lacrosse 5 1.9 21:24:14 10° NW 21:29:19 78° SW 21:32:58 19° SE
Envisat 3.4 21:26:38 17° SE 21:30:13 44° ENE 21:35:02 10° N
Cosmos 1937 Rocket 3.5 21:25:23 10° NNW 21:30:41 76° ENE 21:35:08 15° SSE
Resurs 01 Rocket 4.2 21:28:06 10° SW 21:31:32 22° W 21:35:00 10° NW
BREEZE-M DEB (TANK) 4.0 21:29:18 10° WNW 21:32:40 61° NNE 21:39:45 17° ESE
BREEZE-M DEB (TANK) 2.1 21:31:41 10° NW 21:33:47 49° NNE 21:35:26 24° E
Cosmos 2298 Rocket 4.4 21:29:07 10° NNW 21:34:25 67° WSW 21:39:41 10° S
Cosmos 1743 2.8 21:34:26 11° S 21:38:06 53° E 21:41:56 10° NNE
Cosmos 990 Rocket 4.0 21:34:32 10° NNW 21:39:48 68° ENE 21:43:14 22° SSE
SPOT 5 3.7 21:38:12 24° ESE 21:40:18 34° ENE 21:44:34 10° N
Cosmos 1697 Rocket 2.8 21:39:57 10° SSW 21:45:36 79° WNW 21:51:17 10° NNE
SJ-11-01 4.2 21:41:59 15° SSE 21:45:50 87° ENE 21:50:32 10° NNW
Cosmos 1726 Rocket 3.9 21:46:06 27° SE 21:47:59 43° E 21:52:10 10° NNE
Cosmos 1066 Rocket 4.5 21:43:16 10° NNW 21:48:57 74° W 21:54:44 10° S
RESURS DK-1 2.8 21:48:14 10° NW 21:52:19 57° WSW 21:54:49 22° S
ERS-1 Rocket 2.9 21:48:35 17° SSE 21:52:29 90° W 21:57:33 10° NNW
CZ-4 DEB 3.0 21:51:47 28° S 21:53:14 65° WSW 21:56:23 10° NNW
H-2A R/B 3.8 21:56:29 15° ENE 21:57:00 15° ENE 21:59:42 10° NNE
Cosmos 1802 Rocket 4.0 21:51:14 10° S 21:57:37 76° E 22:04:03 10° N
SL-16 R/B 2.9 21:57:52 30° ESE 21:57:58 30° ESE 22:02:50 10° NE
USA 186 4.2 21:56:03 10° SW 21:58:16 19° W 22:00:23 10° NW
ARGOS 4.1 21:57:44 27° E 21:59:07 30° ENE 22:03:46 10° N
Terra 3.9 21:59:15 12° ENE 21:59:29 12° ENE 22:01:19 10° NE
Cosmos 1825 Rocket 3.5 21:57:13 10° N 22:01:39 82° W 22:04:05 26° S
Cosmos 2016 Rocket 3.9 21:58:52 10° S 22:04:57 73° E 22:11:10 10° NNE
Cosmos 1763 Rocket 3.3 22:00:28 10° SSW 22:05:33 80° ESE 22:10:40 10° NNE
OAO 2 Rocket 4.4 22:02:07 10° WSW 22:06:25 29° S 22:07:11 27° S
MetOp-B 4.3 22:07:20 37° SE 22:09:12 57° ENE 22:14:27 10° N
Cosmos 1980 Rocket 2.2 22:03:56 10° SSW 22:09:36 83° WNW 22:15:21 10° NNE
Cosmos 1842 3.1 22:08:13 10° N 22:12:07 63° E 22:12:18 62° E
Cosmos 1953 Rocket 3.6 22:08:50 10° N 22:13:19 85° W 22:15:00 38° S
H-2A R/B 1.8 22:15:02 55° SSE 22:15:56 87° ENE 22:20:06 10° NNW
SPOT 1/Viking Rocket 4.0 22:15:02 40° E 22:16:00 44° ENE 22:20:56 10° N
Cosmos 2173 Rocket 4.3 22:10:41 10° SSW 22:17:01 69° W 22:23:19 10° N
Cosmos 2098 Rocket 3.8 22:12:46 18° S 22:17:49 70° E 22:23:20 10° NNE
Cosmos 1125 Rocket 3.5 22:13:48 10° NNW 22:18:58 61° ENE 22:20:07 49° ESE
Cosmos 2228 3.4 22:20:01 45° ENE 22:20:01 45° ENE 22:23:34 10° NNE
Cosmos 1666 2.5 22:20:21 77° ENE 22:20:21 77° ENE 22:24:01 10° N
SWAS 4.3 22:20:17 56° S 22:21:03 72° ESE 22:25:23 10° NNE
Tiangong 1 3.2 22:20:39 10° W 22:22:11 20° WSW 22:22:11 20° WSW
Nimbus 7 Rocket 4.3 22:18:36 10° NNE 22:24:43 81° ESE 22:29:40 16° SSW
SL-19 R/B 4.3 22:19:42 10° NNE 22:24:56 46° E 22:24:57 46° E
USA 215 4.1 22:21:34 22° ENE 22:25:15 40° NNE 22:31:15 10° NW
BREEZE-M DEB (TANK) 3.5 22:12:53 10° WSW 22:25:47 85° SSE 22:27:44 37° ENE
YAOGAN 6 2.8 22:28:05 66° NNE 22:28:05 66° NNE 22:31:24 10° N
BREEZE-M DEB (TANK) 4.3 22:05:14 10° WNW 22:28:55 75° NNE 22:31:51 37° E
Cosmos 841 Rocket 3.7 22:24:47 10° SSW 22:30:00 72° WNW 22:35:14 10° NNE
Cosmos 1758 Rocket 3.9 22:27:25 10° NNW 22:31:43 62° W 22:32:43 47° SSW
Cosmos 1864 Rocket 4.3 22:30:38 34° S 22:33:31 80° E 22:39:40 10° N
Cosmos 2263 Rocket 2.6 22:28:36 10° NNW 22:33:55 44° ENE 22:34:32 42° ENE
ASTEX 1 3.4 22:31:50 10° N 22:36:51 79° W 22:38:29 43° SSW
Cosmos 1340 4.3 22:34:21 10° NNW 22:37:43 30° W 22:38:50 26° SW
SL-08 RB Rocket 4.1 22:38:07 49° ENE 22:38:07 49° ENE 22:42:16 10° N
Cosmos 540 Rocket 3.9 22:39:10 45° ENE 22:39:10 45° ENE 22:43:06 10° NNE
deb Chang Zheng 4 4.1 22:36:50 10° N 22:41:14 61° WNW 22:43:01 34° SW
Cosmos 2322 Rocket 2.0 22:42:28 54° S 22:43:45 75° ESE 22:49:23 10° NNE
Tsikada Rocket 4.0 22:38:35 10° N 22:45:02 83° W 22:47:16 44° S
Meteor 2-5 Rocket 4.0 22:44:30 10° N 22:50:17 52° ENE 22:50:21 52° ENE
Meteor 1-15 Rocket 4.4 22:50:28 35° SSW 22:53:07 75° WNW 22:58:59 10° N
Meteor 2-17 Rocket 4.3 22:52:23 65° SSE 22:53:11 75° E 22:59:14 10° NNE
Cosmos 372 Rocket 3.9 22:49:07 10° NNW 22:54:09 77° NE 22:54:09 77° NE
Cosmos 2058 Rocket 4.3 22:59:39 32° WSW 23:01:03 41° WNW 23:05:20 10° N
Cosmos 405 Rocket 4.2 23:00:20 10° NNW 23:02:30 33° NNW 23:02:30 33° NNW
Cosmos 1725 Rocket 4.5 23:02:49 26° SSW 23:06:14 58° WNW 23:12:25 10° N
Lacrosse 5 4.2 23:09:17 10° W 23:11:31 13° WSW 23:12:11 13° SW
Cosmos 332 Rocket 4.3 23:15:37 59° NNW 23:15:37 59° NNW 23:19:56 10° NNE
Cosmos 371 Rocket 4.5 23:19:39 35° NNE 23:19:39 35° NNE 23:22:29 10° NNE
SPOT 5 4.4 23:17:28 27° WSW 23:18:21 29° W 23:22:31 10° NW
CZ-4B R/B 3.9 23:15:13 10° N 23:19:01 55° NNW 23:19:01 55° NNW
Landsat 7 4.5 23:22:23 52° NNW 23:22:23 52° NNW 23:26:00 10° NNW
Cosmos 2278 Rocket 4.2 23:22:08 10° N 23:25:33 16° NE 23:25:52 16° NE
Cosmos 2233 Rocket 4.3 23:27:35 54° WSW 23:28:39 63° W 23:34:51 10° N
H-2A R/B 2.7 23:37:08 49° NNW 23:37:08 49° NNW 23:40:47 10° NNW
Terra 2.9 23:38:09 42° NNW 23:38:09 42° NNW 23:41:17 10° NNW
ARGOS 4.2 23:39:15 38° W 23:39:15 38° W 23:44:14 10° NNW
SL-16 R/B 3.2 23:39:37 29° WSW 23:41:53 42° WNW 23:47:17 10° NNE
Cosmos 1844 Rocket 3.9 23:40:10 10° N 23:44:10 34° NNE 23:44:10 34° NNE
Cosmos 2360 Rocket 3.2 23:56:06 40° NNE 23:56:06 40° NNE 23:59:39 10° NNE
